TimeEDT,TemperatureF,Dew PointF,Humidity,Sea Level PressureIn,VisibilityMPH,Wind Direction,Wind SpeedMPH,Gust SpeedMPH,PrecipitationIn,Events,Conditions,WindDirDegrees,DateUTC
12:01 AM,48.2,48.2,100,30.08,2.0,Calm,Calm,-,0.00,Rain,Light Rain,0,2012-09-29 04:01:00
12:11 AM,48.2,48.2,100,30.08,1.2,Calm,Calm,-,0.00,,Overcast,0,2012-09-29 04:11:00
12:19 AM,48.2,48.2,100,30.07,1.0,Calm,Calm,-,0.00,,Mist,0,2012-09-29 04:19:00
12:29 AM,48.2,48.2,100,30.07,0.5,Calm,Calm,-,0.00,Fog,Fog,0,2012-09-29 04:29:00
12:47 AM,48.2,48.2,100,30.07,1.0,Calm,Calm,-,0.00,,Mist,0,2012-09-29 04:47:00
12:51 AM,48.2,48.2,100,30.07,1.5,Calm,Calm,-,N/A,,Overcast,0,2012-09-29 04:51:00
1:02 AM,48.2,48.2,100,30.07,2.0,Calm,Calm,-,N/A,,Overcast,0,2012-09-29 05:02:00
1:51 AM,48.2,48.2,100,30.06,1.8,Calm,Calm,-,N/A,Rain,Light Rain,0,2012-09-29 05:51:00
2:00 AM,48.2,48.2,100,30.05,2.5,Calm,Calm,-,0.00,Rain,Light Rain,0,2012-09-29 06:00:00
2:27 AM,48.2,48.2,100,30.05,1.5,Calm,Calm,-,0.01,Rain,Light Rain,0,2012-09-29 06:27:00
2:51 AM,48.0,48.0,100,30.06,2.0,Calm,Calm,-,0.02,Rain,Light Rain,0,2012-09-29 06:51:00
3:07 AM,48.2,48.2,100,30.03,1.2,NE,3.5,-,0.00,Rain,Light Rain,50,2012-09-29 07:07:00
3:16 AM,48.2,48.2,100,30.03,1.0,Calm,Calm,-,0.00,Rain,Light Rain,0,2012-09-29 07:16:00
3:26 AM,48.2,48.2,100,30.03,0.8,Calm,Calm,-,0.00,Rain,Light Rain,0,2012-09-29 07:26:00
3:51 AM,48.0,48.0,100,30.05,0.8,Calm,Calm,-,0.01,Rain,Light Rain,0,2012-09-29 07:51:00
3:54 AM,48.2,48.2,100,30.02,1.0,Calm,Calm,-,0.00,Rain,Light Rain,0,2012-09-29 07:54:00
4:00 AM,48.2,48.2,100,30.02,1.5,Calm,Calm,-,0.00,Rain,Light Rain,0,2012-09-29 08:00:00
4:10 AM,48.2,48.2,100,30.03,3.0,Calm,Calm,-,0.00,,Overcast,0,2012-09-29 08:10:00
4:42 AM,48.2,48.2,100,30.02,2.0,Calm,Calm,-,0.01,Rain,Light Rain,0,2012-09-29 08:42:00
4:51 AM,48.0,48.0,100,30.04,2.5,Calm,Calm,-,0.01,Rain,Light Rain,0,2012-09-29 08:51:00
5:06 AM,48.2,48.2,100,30.02,4.0,Calm,Calm,-,0.01,Rain,Light Rain,0,2012-09-29 09:06:00
5:26 AM,48.2,48.2,100,30.02,2.0,Calm,Calm,-,0.01,Rain,Light Rain,0,2012-09-29 09:26:00
5:37 AM,48.2,48.2,100,30.02,4.0,Calm,Calm,-,0.01,Rain,Light Rain,0,2012-09-29 09:37:00
5:51 AM,48.0,48.0,100,30.04,4.0,Calm,Calm,-,0.02,Rain,Light Rain,0,2012-09-29 09:51:00
6:00 AM,48.2,48.2,100,30.03,4.0,Calm,Calm,-,0.01,Rain,Light Rain,0,2012-09-29 10:00:00
6:07 AM,48.2,48.2,100,30.03,4.0,Calm,Calm,-,0.01,Rain,Light Rain,0,2012-09-29 10:07:00
6:22 AM,48.2,48.2,100,30.03,3.0,Calm,Calm,-,0.02,,Overcast,0,2012-09-29 10:22:00
6:29 AM,48.2,48.2,100,30.02,3.0,Calm,Calm,-,0.02,,Overcast,0,2012-09-29 10:29:00
6:41 AM,48.2,48.2,100,30.02,2.5,Calm,Calm,-,0.02,,Overcast,0,2012-09-29 10:41:00
6:51 AM,48.0,48.0,100,30.05,2.5,Calm,Calm,-,0.02,Rain,Light Rain,0,2012-09-29 10:51:00
7:13 AM,48.2,48.2,100,30.02,1.8,NNE,3.5,-,0.01,Rain,Light Rain,20,2012-09-29 11:13:00
7:20 AM,48.2,48.2,100,30.02,2.0,NNE,3.5,-,0.01,,Overcast,20,2012-09-29 11:20:00
7:51 AM,48.0,48.0,100,30.05,3.0,Calm,Calm,-,0.02,,Overcast,0,2012-09-29 11:51:00
8:15 AM,48.2,48.2,100,30.02,2.0,North,3.5,-,0.00,Rain,Light Rain,10,2012-09-29 12:15:00
8:30 AM,48.2,48.2,100,30.03,1.8,Calm,Calm,-,0.00,Rain,Light Rain,0,2012-09-29 12:30:00
8:51 AM,48.0,48.0,100,30.05,1.8,NNW,3.5,-,0.01,Rain,Light Rain,340,2012-09-29 12:51:00
9:05 AM,48.2,48.2,100,30.03,2.0,North,4.6,-,0.00,,Overcast,350,2012-09-29 13:05:00
9:10 AM,48.2,48.2,100,30.03,1.8,North,3.5,-,0.00,Rain,Light Rain,10,2012-09-29 13:10:00
9:29 AM,48.2,48.2,100,30.03,2.0,NNW,3.5,-,0.01,Rain,Light Rain,340,2012-09-29 13:29:00
9:51 AM,48.9,48.9,100,30.04,3.0,Calm,Calm,-,0.01,Rain,Light Rain,0,2012-09-29 13:51:00
10:28 AM,50.0,48.2,94,30.01,2.5,North,3.5,-,0.01,Rain,Light Rain,360,2012-09-29 14:28:00
10:37 AM,50.0,48.2,94,30.01,3.0,North,4.6,-,0.01,Rain,Light Rain,350,2012-09-29 14:37:00
10:51 AM,50.0,48.9,96,30.03,5.0,Calm,Calm,-,0.01,,Overcast,0,2012-09-29 14:51:00
11:07 AM,50.0,50.0,100,30.01,2.5,Calm,Calm,-,N/A,,Overcast,0,2012-09-29 15:07:00
11:15 AM,50.0,50.0,100,30.00,3.0,NNW,3.5,-,N/A,,Overcast,340,2012-09-29 15:15:00
11:22 AM,50.0,50.0,100,30.00,2.5,Calm,Calm,-,0.01,,Overcast,0,2012-09-29 15:22:00
11:51 AM,51.1,50.0,96,30.01,2.5,Calm,Calm,-,0.01,,Overcast,0,2012-09-29 15:51:00
12:42 PM,51.8,51.8,100,29.99,3.0,Calm,Calm,-,0.01,,Overcast,0,2012-09-29 16:42:00
12:51 PM,52.0,51.1,97,30.00,6.0,Calm,Calm,-,0.01,,Overcast,0,2012-09-29 16:51:00
1:51 PM,54.0,53.1,97,29.98,5.0,North,5.8,-,0.00,,Overcast,360,2012-09-29 17:51:00
2:01 PM,53.6,51.8,94,29.97,5.0,NNW,3.5,-,N/A,,Overcast,330,2012-09-29 18:01:00
2:09 PM,53.6,51.8,94,29.96,4.0,NW,4.6,-,N/A,,Overcast,320,2012-09-29 18:09:00
2:51 PM,53.1,53.1,100,29.97,5.0,NW,3.5,-,N/A,,Overcast,320,2012-09-29 18:51:00
3:28 PM,53.6,51.8,94,29.95,4.0,NNE,5.8,-,0.01,Rain,Light Rain,20,2012-09-29 19:28:00
3:36 PM,53.6,53.6,100,29.95,3.0,North,3.5,-,0.01,Rain,Light Rain,360,2012-09-29 19:36:00
3:51 PM,53.1,53.1,100,29.96,1.8,North,4.6,-,0.03,Rain,Rain,10,2012-09-29 19:51:00
4:15 PM,53.6,53.6,100,29.95,2.5,Calm,Calm,-,0.02,Rain,Light Rain,0,2012-09-29 20:15:00
4:23 PM,53.6,53.6,100,29.95,8.0,Calm,Calm,-,0.02,,Overcast,0,2012-09-29 20:23:00
4:33 PM,53.6,53.6,100,29.95,2.5,Calm,Calm,-,0.02,Rain,Light Rain,0,2012-09-29 20:33:00
4:40 PM,53.6,51.8,94,29.95,2.5,NNE,3.5,-,0.03,Rain,Light Rain,30,2012-09-29 20:40:00
4:51 PM,53.1,53.1,100,29.96,6.0,Calm,Calm,-,0.03,,Overcast,0,2012-09-29 20:51:00
5:12 PM,53.6,51.8,94,29.95,8.0,NNE,3.5,-,N/A,,Overcast,20,2012-09-29 21:12:00
5:29 PM,53.6,51.8,94,29.95,10.0,Calm,Calm,-,N/A,,Overcast,0,2012-09-29 21:29:00
5:51 PM,53.1,52.0,96,29.96,10.0,NE,3.5,-,N/A,,Overcast,40,2012-09-29 21:51:00
6:08 PM,53.6,51.8,94,29.95,10.0,NNE,3.5,-,N/A,,Overcast,20,2012-09-29 22:08:00
6:39 PM,51.8,51.8,100,29.96,10.0,Calm,Calm,-,N/A,,Overcast,0,2012-09-29 22:39:00
6:51 PM,52.0,51.1,97,29.97,10.0,Calm,Calm,-,N/A,,Overcast,0,2012-09-29 22:51:00
7:23 PM,51.8,51.8,100,29.96,10.0,Calm,Calm,-,N/A,,Overcast,0,2012-09-29 23:23:00
7:51 PM,52.0,51.1,97,29.98,10.0,Calm,Calm,-,N/A,,Overcast,0,2012-09-29 23:51:00
8:18 PM,51.8,51.8,100,29.97,10.0,Calm,Calm,-,N/A,,Overcast,0,2012-09-30 00:18:00
8:34 PM,51.8,51.8,100,29.97,10.0,Calm,Calm,-,N/A,,Overcast,0,2012-09-30 00:34:00
8:51 PM,51.1,51.1,100,29.99,9.0,Calm,Calm,-,N/A,,Overcast,0,2012-09-30 00:51:00
9:13 PM,51.8,51.8,100,29.97,7.0,Calm,Calm,-,N/A,,Overcast,0,2012-09-30 01:13:00
9:51 PM,51.1,51.1,100,29.98,10.0,Calm,Calm,-,N/A,,Overcast,0,2012-09-30 01:51:00
10:16 PM,51.8,51.8,100,29.96,10.0,Calm,Calm,-,N/A,,Overcast,0,2012-09-30 02:16:00
10:51 PM,51.1,51.1,100,29.98,10.0,Calm,Calm,-,N/A,,Overcast,0,2012-09-30 02:51:00
11:51 PM,50.0,50.0,100,29.98,9.0,Calm,Calm,-,N/A,,Overcast,0,2012-09-30 03:51:00